[[{"header":{"parameterUnit":"m.s-1","parameterCategory":1,"la1":30.2991,"la2":30.254,"lo1":-89.0895,"lo2":-89.0444,"dy":0.0017,"dx":0.0017,"nx":28,"ny":28,"refTime":"2023-09-05T03:00:00:Z","depth":0,"parameterNumber":2,"parameterNumberName":"U-component_of_WINDS"},"data":[0,0,0,0,0,0,0,0,0,0,0,0,0,0,0,0,0,0,0,0,0,0,0,0,0,0,0,0,0,0,0,0,0,0,0,0,0,0,0,0,0,0,0,0,0,0,0,0,0,0,0,0,0,0,0,0,0,0,-4.4213,-4.4213,0,-4.4171,-4.4171,-4.417,-4.4052,-4.4049,-4.4047,-4.4044,-4.4003,-4.4005,-4.4006,0,0,0,0,0,0,0,0,0,0,0,0,0,-4.4195,-4.4196,-4.4213,-4.4213,-4.4212,-4.4171,-4.4171,-4.417,-4.4052,-4.4049,-4.4046,-4.4043,-4.4003,-4.4005,-4.4006,0,0,0,0,0,0,0,0,0,0,0,0,0,-4.4183,-4.4197,-4.4213,-4.4149,-4.4142,-4.4171,-4.4171,-4.417,-4.4053,-4.4049,-4.4045,-4.4042,-4.4002,-4.4004,-4.4006,-4.4095,0,0,-4.4012,-4.4013,0,0,0,0,0,0,0,0,-4.4184,-4.4184,-4.4159,-4.4153,-4.4146,-4.4113,-4.4149,-4.4145,-4.4054,-4.4087,-4.4044,-4.404,-4.4043,-4.4041,-4.4042,-4.4093,-4.4092,-4.4012,-4.4014,-4.4014,-4.4015,0,0,0,0,0,0,0,-4.4185,-4.4185,-4.4197,-4.4159,-4.4151,-4.4123,-4.4117,-4.4148,-4.4087,-4.4084,-4.4075,-4.4072,-4.4039,-4.404,-4.404,-4.4091,-4.4012,-4.4014,-4.4015,-4.4016,-4.4215,-4.4219,0,0,0,0,0,0,-4.4195,-4.4187,-4.4198,-4.4195,-4.4156,-4.4126,-4.412,-4.4128,-4.4087,-4.4077,-4.4075,-4.4066,-4.4039,-4.4038,-4.4038,-4.414,-4.4014,-4.4016,-4.4017,-4.4211,-4.4216,-4.4221,0,0,0,0,0,0,-4.4195,-4.4197,-4.42,-4.4189,-4.4187,-4.4131,-4.4141,-4.4129,-4.413,-4.408,-4.4069,-4.4088,-4.4036,-4.4036,-4.4082,-4.4137,-4.4017,-4.4019,-4.4206,-4.4213,-4.4218,-4.4346,0,0,0,0,0,0,-4.4195,-4.4198,-4.423,-4.419,-4.4188,-4.4244,-4.4144,-4.4131,-4.4133,-4.4122,-4.4089,-4.4079,-4.4033,-4.408,-4.4084,-4.4138,-4.402,-4.4201,-4.4209,-4.4216,-4.4336,-4.4355,-4.4372,0,0,0,0,0,-4.4195,-4.4267,-4.4232,-4.4234,-4.4227,-4.4247,-4.4246,-4.419,-4.4138,-4.4171,-4.4139,-4.408,-4.4131,-4.4086,-4.4089,-4.4145,-4.4197,-4.4207,-4.4216,-4.4328,-4.4352,-4.4371,0,0,0,0,0,0,-4.4315,-4.4261,-4.4221,-4.4283,-4.4271,-4.4227,-4.4266,-4.4216,-4.4218,-4.4207,-4.4139,-4.4133,-4.419,-4.4172,-4.4122,-4.423,-4.4155,-4.4165,-4.4239,-4.4261,-4.4278,-4.4281,-4.4022,0,0,0,0,0,-4.4349,-4.4369,-4.4321,-4.438,-4.4376,-4.4323,-4.4329,-4.4288,-4.4272,-4.4266,-4.4238,-4.4226,-4.4239,-4.4249,-4.4258,-4.4334,-4.4325,-4.4374,-4.4391,-4.4406,-4.4416,-4.4456,-4.4477,-4.4251,-4.4251,-4.4251,0,0,-4.4418,-4.4392,-4.4408,-4.4404,-4.4389,-4.4412,-4.4319,-4.4347,-4.4364,-4.4271,-4.4313,-4.4292,-4.4274,-4.4336,-4.4362,-4.4323,-4.4477,-4.4418,-4.443,-4.4432,-4.4468,-4.4489,-4.4508,-4.4257,-4.4256,-4.4255,0,0,-4.4557,-4.4539,-4.4586,-4.4574,-4.4553,-4.4518,-4.453,-4.4494,-4.4477,-4.4518,-4.4449,-4.447,-4.4493,-4.4484,-4.4482,-4.4621,-4.4568,-4.4626,-4.4719,-4.4759,-4.4777,-4.4792,-4.4842,-4.4861,-4.4636,-4.4637,-4.4637,0,-4.4646,-4.4678,-4.4617,-4.4651,-4.4651,-4.4569,-4.4618,-4.4609,-4.4593,-4.4596,-4.4553,-4.4582,-4.4564,-4.4623,-4.4658,-4.4659,-4.4671,-4.4629,-4.4779,-4.4794,-4.4807,-4.4854,-4.4873,-4.4644,-4.4643,-4.4642,-4.4642,0,-4.4789,-4.4812,-4.4854,-4.484,-4.4846,-4.4887,-4.4834,-4.4848,-4.4807,-4.4777,-4.4821,-4.4797,-4.4801,-4.4812,-4.4772,-4.4867,-4.4843,-4.4791,-4.4714,-4.4837,-4.488,-4.4898,-4.4654,-4.4652,-4.4649,-4.4648,0,0,-4.4999,-4.4954,-4.497,-4.4964,-4.4937,-4.4954,-4.4993,-4.4996,-4.5009,-4.5002,-4.5033,-4.5057,-4.5008,-4.5007,-4.4966,-4.5001,-4.5114,-4.4944,-4.4942,-4.4976,-4.5217,-4.5257,-4.5278,-4.5079,-4.5082,-4.5084,-4.5219,0,-4.5131,-4.5192,-4.5141,-4.5213,-4.5234,-4.5158,-4.5192,-4.518,-4.5153,-4.5169,-4.514,-4.5158,-4.5092,-4.5091,-4.5123,-4.5093,-4.5161,-4.5083,-4.5108,-4.5109,-4.5114,-4.5301,-4.5342,-4.547,-4.5235,-4.5238,-4.524,0,-4.5291,-4.5291,-4.5366,-4.5335,-4.5343,-4.5374,-4.5374,-4.5389,-4.5375,-4.5353,-4.5354,-4.5303,-4.534,-4.5267,-4.5317,-4.5265,-4.5273,-4.5261,-4.5264,-4.5264,-4.5182,-4.5305,-4.5509,-4.5528,-4.5266,-4.5264,-4.5262,0,-4.5438,-4.5457,-4.5504,-4.5501,-4.5467,-4.5491,-4.5478,-4.546,-4.5466,-4.5467,-4.547,-4.5476,-4.5479,-4.5485,-4.5439,-4.5389,-4.5496,-4.5418,-4.548,-4.5482,-4.5505,-4.5504,-4.5713,-4.5511,-4.5511,-4.5511,-4.551,0,-4.5589,-4.5637,-4.557,-4.5599,-4.5652,-4.5593,-4.5647,-4.5627,-4.5612,-4.5636,-4.5571,-4.5596,-4.5533,-4.5552,-4.5516,-4.5565,-4.5567,-4.5551,-4.5541,-4.5556,-4.5559,-4.556,-4.5549,-4.5516,-4.5514,-4.5514,-4.5513,0,-4.576,-4.5717,-4.5763,-4.5728,-4.5721,-4.5761,-4.5731,-4.5758,-4.5728,-4.5761,-4.5765,-4.5719,-4.5738,-4.5692,-4.5705,-4.5681,-4.575,-4.5726,-4.5755,-4.5747,-4.5812,-4.5807,-4.6028,-4.6055,-4.5837,-4.584,-4.5841,0,-4.5859,-4.5895,-4.5864,-4.5876,-4.5867,-4.5887,-4.5893,-4.5838,-4.5848,-4.5835,-4.5864,-4.5877,-4.5885,-4.592,-4.5888,-4.5898,-4.5873,-4.595,-4.5874,-4.5889,-4.5874,-4.5872,-4.5876,-4.5966,-4.5968,-4.597,-4.5972,0,-4.6039,-4.6017,-4.6028,-4.6033,-4.6043,-4.6044,-4.6041,-4.6055,-4.5996,-4.6011,-4.6029,-4.6036,-4.6049,-4.6064,-4.6067,-4.6055,-4.6005,-4.5997,-4.6012,-4.6027,-4.6043,-4.6036,-4.5797,-4.5991,-4.599,-4.5988,-4.5987,-4.5986,-4.6177,-4.6206,-4.619,-4.6205,-4.6197,-4.6197,-4.622,-4.6194,-4.6209,-4.6215,-4.6182,-4.6209,-4.6196,-4.6195,-4.6188,-4.6209,-4.6174,-4.6195,-4.6201,-4.6207,-4.6218,-4.6041,-4.6209,-4.6209,-4.6208,-4.6208,-4.6207,0,-4.6354,-4.634,-4.6355,-4.6353,-4.6367,-4.6319,-4.6314,-4.6328,-4.6352,-4.6344,-4.6353,-4.6376,-4.6391,-4.6362,-4.6372,-4.6395,-4.6372,-4.6399,-4.6397,-4.6395,-4.6248,-4.6234,-4.6418,-4.6418,-4.6418,-4.6418,-4.6418,-4.6418,-4.6447,-4.6494,-4.647,-4.6513,-4.6499,-4.6525,-4.6526,-4.6526,-4.6519,-4.6547,-4.656,-4.6541,-4.6525,-4.6534,-4.6546,-4.6537,-4.6544,-4.658,-4.6563,-4.6426,-4.6405,-4.6386,-4.6372,-4.6582,-4.6582,-4.6708,-4.6709,-4.671]},{"header":{"parameterUnit":"m.s-1","parameterCategory":1,"la1":30.2991,"la2":30.254,"lo1":-89.0895,"lo2":-89.0444,"dy":0.0017,"dx":0.0017,"nx":28,"ny":28,"refTime":"2023-09-05T03:00:00:Z","depth":0,"parameterNumber":3,"parameterNumberName":"V-component_of_WINDS"},"data":[0,0,0,0,0,0,0,0,0,0,0,0,0,0,0,0,0,0,0,0,0,0,0,0,0,0,0,0,0,0,0,0,0,0,0,0,0,0,0,0,0,0,0,0,0,0,0,0,0,0,0,0,0,0,0,0,0,0,-0.1791,-0.1792,0,-0.1876,-0.1877,-0.1878,-0.1897,-0.1897,-0.1896,-0.1896,-0.1985,-0.1988,-0.1991,0,0,0,0,0,0,0,0,0,0,0,0,0,-0.1647,-0.165,-0.1791,-0.1792,-0.1793,-0.1876,-0.1877,-0.1878,-0.1898,-0.1897,-0.1896,-0.1895,-0.1984,-0.1988,-0.1991,0,0,0,0,0,0,0,0,0,0,0,0,0,-0.1719,-0.165,-0.1791,-0.1813,-0.1816,-0.1876,-0.1877,-0.1879,-0.1898,-0.1897,-0.1896,-0.1895,-0.1983,-0.1987,-0.1992,-0.2037,0,0,-0.2005,-0.2007,0,0,0,0,0,0,0,0,-0.1715,-0.1724,-0.1809,-0.1812,-0.1815,-0.1875,-0.1859,-0.1932,-0.1898,-0.1867,-0.1896,-0.1895,-0.1949,-0.1957,-0.1975,-0.2041,-0.2045,-0.2005,-0.2008,-0.201,-0.2011,0,0,0,0,0,0,0,-0.171,-0.172,-0.1825,-0.181,-0.1814,-0.1819,-0.1828,-0.1873,-0.1912,-0.1869,-0.1871,-0.1881,-0.1951,-0.197,-0.1977,-0.2046,-0.2005,-0.2009,-0.2012,-0.2014,-0.2153,-0.2154,0,0,0,0,0,0,-0.1701,-0.1716,-0.1822,-0.1828,-0.1761,-0.1822,-0.1832,-0.1857,-0.1912,-0.1919,-0.1881,-0.1881,-0.1963,-0.1972,-0.198,-0.2036,-0.201,-0.2014,-0.2017,-0.2152,-0.2153,-0.2154,0,0,0,0,0,0,-0.1697,-0.171,-0.1819,-0.1772,-0.1787,-0.1826,-0.1853,-0.1859,-0.1878,-0.1921,-0.1928,-0.1894,-0.1963,-0.1974,-0.2022,-0.2039,-0.2016,-0.202,-0.215,-0.2152,-0.2154,-0.2148,0,0,0,0,0,0,-0.1693,-0.1709,-0.1726,-0.1773,-0.1789,-0.1859,-0.1854,-0.1861,-0.1886,-0.1886,-0.1934,-0.1941,-0.1963,-0.2015,-0.2026,-0.2045,-0.2024,-0.2149,-0.2151,-0.2153,-0.2147,-0.215,-0.2152,0,0,0,0,0,-0.1688,-0.1722,-0.1727,-0.174,-0.1811,-0.186,-0.187,-0.1893,-0.1887,-0.1905,-0.1932,-0.194,-0.2035,-0.202,-0.2033,-0.2053,-0.2148,-0.2151,-0.2153,-0.2146,-0.2149,-0.2152,0,0,0,0,0,0,-0.1678,-0.1729,-0.1735,-0.1785,-0.1818,-0.1863,-0.1887,-0.1896,-0.1932,-0.1931,-0.1959,-0.197,-0.2016,-0.204,-0.2022,-0.2099,-0.2092,-0.2097,-0.2082,-0.2085,-0.2087,-0.2081,-0.2027,0,0,0,0,0,-0.1681,-0.1716,-0.1759,-0.1799,-0.1815,-0.1848,-0.187,-0.1885,-0.1921,-0.1935,-0.1966,-0.2001,-0.2039,-0.2063,-0.2101,-0.215,-0.2161,-0.217,-0.2172,-0.2174,-0.2178,-0.2205,-0.221,-0.2162,-0.2162,-0.2162,0,0,-0.1689,-0.1721,-0.1742,-0.1797,-0.1825,-0.1861,-0.186,-0.1898,-0.1925,-0.1941,-0.1989,-0.2012,-0.2053,-0.2102,-0.2125,-0.2123,-0.2193,-0.2177,-0.2178,-0.2181,-0.2208,-0.2213,-0.2217,-0.2164,-0.2163,-0.2163,0,0,-0.1721,-0.1749,-0.1785,-0.1812,-0.1853,-0.1875,-0.1883,-0.1927,-0.1943,-0.199,-0.2003,-0.2036,-0.2101,-0.2129,-0.2152,-0.2193,-0.2201,-0.2204,-0.2216,-0.2242,-0.2246,-0.2249,-0.2263,-0.2268,-0.2208,-0.2208,-0.2208,0,-0.1726,-0.178,-0.1803,-0.184,-0.1864,-0.1879,-0.1915,-0.1941,-0.1993,-0.2009,-0.2005,-0.2085,-0.2114,-0.217,-0.2179,-0.2197,-0.2208,-0.2199,-0.2243,-0.2247,-0.2251,-0.2264,-0.227,-0.2208,-0.2208,-0.2208,-0.2208,0,-0.1783,-0.182,-0.1845,-0.1892,-0.1919,-0.1956,-0.1984,-0.2008,-0.202,-0.2042,-0.209,-0.2124,-0.2168,-0.2182,-0.2195,-0.2239,-0.2236,-0.2237,-0.2231,-0.2255,-0.2268,-0.2274,-0.2208,-0.2208,-0.2208,-0.2208,0,0,-0.1813,-0.1872,-0.188,-0.1902,-0.1947,-0.1977,-0.2014,-0.2055,-0.2076,-0.211,-0.2142,-0.2195,-0.2196,-0.2222,-0.2238,-0.2261,-0.229,-0.2259,-0.226,-0.2263,-0.234,-0.2339,-0.2345,-0.2296,-0.2297,-0.2298,-0.2336,0,-0.1851,-0.1917,-0.1938,-0.1993,-0.2027,-0.2041,-0.2073,-0.2105,-0.2126,-0.2158,-0.2181,-0.2218,-0.2217,-0.2232,-0.2255,-0.2281,-0.2306,-0.2279,-0.2326,-0.2327,-0.2315,-0.2352,-0.2351,-0.2386,-0.2342,-0.2343,-0.2343,0,-0.1904,-0.1938,-0.1996,-0.2037,-0.2052,-0.208,-0.2119,-0.215,-0.2186,-0.2199,-0.2227,-0.2241,-0.228,-0.227,-0.2324,-0.2305,-0.2325,-0.2341,-0.2343,-0.2348,-0.2337,-0.2358,-0.2398,-0.2403,-0.2352,-0.2351,-0.2351,0,-0.192,-0.198,-0.2022,-0.204,-0.2088,-0.2108,-0.2129,-0.2164,-0.2187,-0.2221,-0.2237,-0.2276,-0.2297,-0.2327,-0.235,-0.2341,-0.2402,-0.2395,-0.2415,-0.2414,-0.2427,-0.2426,-0.2471,-0.244,-0.244,-0.244,-0.244,0,-0.196,-0.1995,-0.203,-0.2056,-0.2095,-0.2118,-0.2157,-0.2179,-0.2209,-0.224,-0.2255,-0.2283,-0.2312,-0.2345,-0.2363,-0.2405,-0.2415,-0.2427,-0.2431,-0.2425,-0.2424,-0.2439,-0.2437,-0.2441,-0.2441,-0.2441,-0.244,0,-0.1984,-0.2009,-0.2056,-0.2097,-0.2108,-0.2135,-0.217,-0.2196,-0.2216,-0.2255,-0.2265,-0.2298,-0.2337,-0.2363,-0.2413,-0.2425,-0.247,-0.2474,-0.2458,-0.246,-0.2478,-0.2476,-0.2534,-0.2543,-0.2506,-0.2507,-0.2507,0,-0.2008,-0.2035,-0.2078,-0.2099,-0.212,-0.2154,-0.2177,-0.2201,-0.2225,-0.2267,-0.2287,-0.2327,-0.2359,-0.242,-0.2449,-0.2487,-0.2492,-0.251,-0.2498,-0.2491,-0.2492,-0.249,-0.2492,-0.2512,-0.2512,-0.2512,-0.2512,0,-0.2048,-0.2058,-0.2091,-0.2128,-0.2155,-0.2186,-0.2217,-0.2233,-0.2262,-0.2288,-0.2327,-0.2352,-0.2402,-0.2441,-0.2481,-0.2503,-0.2512,-0.2516,-0.2522,-0.2517,-0.2506,-0.2511,-0.2463,-0.2514,-0.2514,-0.2514,-0.2514,-0.2514,-0.2073,-0.2097,-0.2131,-0.2167,-0.2192,-0.2219,-0.2245,-0.2269,-0.2301,-0.2343,-0.2355,-0.2396,-0.243,-0.2484,-0.2507,-0.2539,-0.2537,-0.2547,-0.2549,-0.2551,-0.2551,-0.25,-0.2546,-0.2546,-0.2546,-0.2546,-0.2546,0,-0.2113,-0.2135,-0.2168,-0.2209,-0.2237,-0.2242,-0.2276,-0.2299,-0.2335,-0.2365,-0.2396,-0.2441,-0.2478,-0.2509,-0.2547,-0.2567,-0.2572,-0.2576,-0.2575,-0.258,-0.255,-0.2541,-0.2571,-0.2571,-0.2571,-0.2571,-0.2571,-0.2571,-0.2137,-0.2178,-0.2192,-0.2246,-0.2268,-0.2307,-0.2325,-0.2351,-0.2375,-0.2424,-0.2454,-0.2474,-0.2504,-0.2545,-0.2579,-0.2587,-0.26,-0.2603,-0.2612,-0.2585,-0.2582,-0.2579,-0.257,-0.2606,-0.2606,-0.2639,-0.2639,-0.2639]}]]